Hourly Data Report for May 09, 2012

All times are specified in Local Standard Time (LST). Add 1 hour to adjust for Daylight Saving Time where and when it is observed.

GANDER INTL A
NEWFOUNDLAND

48°56'13.000" N
54°34'05.000" W
151.20 m
8401703
71803
YQX

Download Data

Hourly Data (May 2012)
Hourly Data Report for May 9, 2012
Temp Definition
°C
Dew Point Temp Definition
°C
Rel Hum Definition
%
Wind Dir Definition
10's deg

Wind Spd Definition
km/h
Visibility Definition
km
Stn Press Definition
kPa
Hmdx Definition


Wind Chill Definition


Weather Definition


TIME
00:30 Legend Double Dagger 7.8 5.6 86 23 11 10.0 100.13     LegendNANA
01:30 Legend Double Dagger 6.7 5.0 89 23 15 10.0 100.11     LegendNANA
02:30 Legend Double Dagger 7.4 5.4 87 23 12 10.0 100.10     Cloudy
03:30 Legend Double Dagger 7.5 5.3 86 23 19 10.0 100.08     LegendNANA
04:30 Legend Double Dagger 7.5 5.2 85 24 23 10.0 100.09     Rain Showers
05:30 Legend Double Dagger 7.2 5.2 87 24 22 10.0 100.11     Mostly Cloudy
06:30 Legend Double Dagger 7.3 5.0 85 24 19 10.0 100.12     LegendNANA
07:30 Legend Double Dagger 8.1 4.9 80 24 18 10.0 100.13     LegendNANA
08:30 Legend Double Dagger 9.3 5.3 76 23 18 10.0 100.09     Cloudy
09:30 Legend Double Dagger 12.2 5.0 61 25 23 10.0 100.08     LegendNANA
10:30 Legend Double Dagger 12.0 4.8 61 23 27 10.0 100.06     LegendNANA
11:30 Legend Double Dagger 12.7 4.5 57 23 25 10.0 100.01     Cloudy
12:30 Legend Double Dagger 14.3 4.4 51 22 31 10.0 99.99     LegendNANA
13:30 Legend Double Dagger 14.2 4.0 50 23 22 10.0 99.97     LegendNANA
14:30 Legend Double Dagger 15.4 3.6 45 23 24 10.0 99.94     Mostly Cloudy
15:30 Legend Double Dagger 12.9 5.1 59 22 14 10.0 99.93     LegendNANA
16:30 Legend Double Dagger 12.6 3.9 55 23 26 10.0 99.96     LegendNANA
17:30 Legend Double Dagger 11.8 3.6 57 22 27 10.0 99.96     Cloudy
18:30 Legend Double Dagger 10.7 4.0 63 21 22 10.0 99.98     LegendNANA
19:30 Legend Double Dagger 9.5 4.1 69 21 20 10.0 100.01     LegendNANA
20:30 Legend Double Dagger 8.6 2.6 66 20 25 10.0 100.07     Cloudy
21:30 Legend Double Dagger 7.3 2.8 73 20 22 10.0 100.04     Rain Showers
22:30 Legend Double Dagger 6.8 2.7 75 20 16 10.0 99.96     LegendNANA
23:30 Legend Double Dagger 6.9 1.6 69 20 16 10.0 99.94     Rain Showers

Notes on Data Quality.

Legend

  • E = Estimated
  • M = Missing
  • NA = Not Available
  • ‡ = Partner data that is not subject to review by the National Climate Archives
Date modified: